Weather History for Paris Le Bourget, France

Change the Weather History Date:

Tuesday, February 5, 2013

  Actual Average Record
Temperature  
Mean Temperature 40 °F -  
Max Temperature 46 °F 47 °F 64 °F (2004)
Min Temperature 35 °F 36 °F 21 °F (2012)
Degree Days  
Heating Degree Days 24    
Moisture  
Dew Point 35 °F    
Average Humidity 76    
Maximum Humidity 87    
Minimum Humidity 65    
Precipitation  
Precipitation 0.00 in 0.06 in - ()
Sea Level Pressure  
Sea Level Pressure 29.74 in    
Wind  
Wind Speed 13 mph ()    
Max Wind Speed 22 mph    
Max Gust Speed 31 mph    
Visibility 6.2 miles    
Events Rain    
Averages and records for this station are not official NWS values.
T = Trace of Precipitation, MM = Missing Value Source: Averaged Metar Reports

Daily Weather History Graph

Daily Weather History Graph

Search for Another Location

Airport:

Trip Planner

Search our weather history database for the weather conditions in past years. The results will help you decide how hot, cold, wet, or windy it might be!

Date:

Astronomy

Feb. 05, 2013 Rise Set
Actual Time 8:14 AM CET 5:54 PM CET
Civil Twilight 7:41 AM CET 6:28 PM CET
Nautical Twilight 7:03 AM CET 7:05 PM CET
Astronomical Twilight 6:26 AM CET 7:42 PM CET
Moon 3:49 AM CET (2/5) 12:47 PM CET (2/5)
Length of Visible Light 10h 46m
Length of Day
9h 39m
Waning Crescent, 29% of the Moon is Illuminated
Feb 5
Waning Crescent
Feb 10
New
Feb 17
First Quarter
Feb 25
Full
Mar 4
Last Quarter

Hourly Weather History & Observations

Time (CET) Temp. Windchill Dew Point Humidity Pressure Visibility Wind Dir Wind Speed Gust Speed Precip Events Conditions
12:00 AM 46.4 °F 41.1 °F 37.4 °F 71% 30.01 in 6.2 mi WSW 11.5 mph - N/A   Mostly Cloudy
12:30 AM 46.4 °F 41.1 °F 37.4 °F 71% 30.01 in 6.2 mi WSW 11.5 mph - N/A   Mostly Cloudy
1:00 AM 46.4 °F 39.8 °F 37.4 °F 71% 29.98 in 6.2 mi WSW 16.1 mph 27.6 mph N/A   Mostly Cloudy
1:30 AM 46.4 °F 40.4 °F 37.4 °F 71% 29.98 in 6.2 mi WSW 13.8 mph - N/A   Mostly Cloudy
2:00 AM 46.4 °F 39.8 °F 37.4 °F 71% 29.95 in 6.2 mi WSW 16.1 mph - N/A   Overcast
2:30 AM 46.4 °F 40.1 °F 37.4 °F 71% 29.95 in 6.2 mi WSW 15.0 mph - N/A   Overcast
3:00 AM 44.6 °F 38.1 °F 39.2 °F 81% 29.95 in 6.2 mi WSW 13.8 mph - N/A Rain Light Rain
3:30 AM 42.8 °F 35.8 °F 39.2 °F 87% 29.89 in 6.2 mi SW 13.8 mph - N/A   Mostly Cloudy
4:00 AM 44.6 °F 37.4 °F 37.4 °F 76% 29.89 in 6.2 mi SW 16.1 mph - N/A   Mostly Cloudy
4:30 AM 44.6 °F 38.4 °F 39.2 °F 81% 29.86 in 6.2 mi SW 12.7 mph - N/A   Overcast
5:00 AM 44.6 °F 37.4 °F 39.2 °F 81% 29.83 in 6.2 mi SW 16.1 mph - N/A   Overcast
5:30 AM 44.6 °F 37.4 °F 37.4 °F 76% 29.80 in 6.2 mi SW 16.1 mph - N/A   Mostly Cloudy
6:00 AM 44.6 °F 37.4 °F 37.4 °F 76% 29.80 in 6.2 mi SW 16.1 mph - N/A   Overcast
6:30 AM 44.6 °F 36.9 °F 37.4 °F 76% 29.77 in 6.2 mi WSW 18.4 mph - N/A   Mostly Cloudy
7:00 AM 44.6 °F 37.2 °F 39.2 °F 81% 29.77 in 6.2 mi WSW 17.3 mph 29.9 mph N/A Rain Light Rain
7:30 AM 42.8 °F 34.8 °F 39.2 °F 87% 29.77 in 6.2 mi West 17.3 mph - N/A Rain Light Rain
8:00 AM 42.8 °F 34.3 °F 39.2 °F 87% 29.80 in 6.2 mi West 19.6 mph - N/A Rain Light Rain
8:30 AM 41.0 °F 33.9 °F 37.4 °F 87% 29.80 in 6.2 mi West 12.7 mph - N/A   Mostly Cloudy
9:00 AM 39.2 °F 32.0 °F 35.6 °F 87% 29.80 in 6.2 mi West 11.5 mph - N/A   Mostly Cloudy
9:30 AM 39.2 °F 33.0 °F 35.6 °F 87% 29.80 in 6.2 mi West 9.2 mph - N/A   Mostly Cloudy
10:00 AM 41.0 °F 34.3 °F 35.6 °F 81% 29.77 in 6.2 mi West 11.5 mph - N/A   Overcast
10:30 AM 39.2 °F 32.5 °F 35.6 °F 87% 29.77 in 6.2 mi WSW 10.4 mph - N/A   Mostly Cloudy
11:00 AM 41.0 °F 33.9 °F 35.6 °F 81% 29.74 in 6.2 mi WSW 12.7 mph - N/A   Overcast
11:30 AM 41.0 °F 32.8 °F 35.6 °F 81% 29.74 in 6.2 mi West 16.1 mph - N/A   Mostly Cloudy
12:00 PM 41.0 °F 33.5 °F 35.6 °F 81% 29.71 in 6.2 mi WSW 13.8 mph - N/A   Mostly Cloudy
12:30 PM 42.8 °F 35.4 °F 35.6 °F 76% 29.71 in 6.2 mi West 15.0 mph - N/A   Mostly Cloudy
1:00 PM 42.8 °F 34.0 °F 33.8 °F 70% 29.71 in 6.2 mi West 20.7 mph - N/A   Overcast
1:30 PM 42.8 °F 34.3 °F 35.6 °F 76% 29.65 in 6.2 mi WSW 19.6 mph 31.1 mph N/A   Mostly Cloudy
2:00 PM 44.6 °F 36.9 °F 33.8 °F 66% 29.65 in 6.2 mi WSW 18.4 mph - N/A   Mostly Cloudy
2:30 PM 42.8 °F 34.3 °F 32.0 °F 66% 29.62 in 6.2 mi West 19.6 mph - N/A   Overcast
3:00 PM 41.0 °F 31.4 °F 30.2 °F 65% 29.62 in 6.2 mi West 21.9 mph - N/A   Overcast
3:30 PM 41.0 °F 32.2 °F 30.2 °F 65% 29.62 in 6.2 mi WSW 18.4 mph - N/A   Unknown
4:00 PM 41.0 °F 33.1 °F 32.0 °F 70% 29.62 in 6.2 mi West 15.0 mph - N/A   Unknown
4:30 PM 41.0 °F 33.5 °F 30.2 °F 65% 29.62 in 6.2 mi West 13.8 mph - N/A   Partly Cloudy
5:00 PM 41.0 °F 32.8 °F 30.2 °F 65% 29.62 in 6.2 mi West 16.1 mph - N/A   Mostly Cloudy
5:30 PM 41.0 °F 31.9 °F 32.0 °F 70% 29.59 in 6.2 mi West 19.6 mph - N/A   Mostly Cloudy
6:00 PM 39.2 °F 30.8 °F 28.4 °F 65% 29.62 in 6.2 mi West 15.0 mph - N/A   Mostly Cloudy
6:30 PM 39.2 °F 31.2 °F 28.4 °F 65% 29.62 in 6.2 mi West 13.8 mph - N/A   Unknown
7:00 PM 37.4 °F 28.5 °F 30.2 °F 75% 29.62 in 6.2 mi West 15.0 mph - N/A   Mostly Cloudy
7:30 PM 37.4 °F 30.3 °F 30.2 °F 75% 29.62 in 6.2 mi West 10.4 mph - N/A   Mostly Cloudy
8:00 PM 37.4 °F 28.2 °F 32.0 °F 81% 29.62 in 6.2 mi WSW 16.1 mph - N/A   Mostly Cloudy
8:30 PM 35.6 °F 29.2 °F 30.2 °F 81% 29.62 in 6.2 mi WSW 8.1 mph - N/A   Mostly Cloudy
9:00 PM 35.6 °F 29.2 °F 30.2 °F 81% 29.62 in 6.2 mi WSW 8.1 mph - N/A   Unknown
9:30 PM 37.4 °F 29.8 °F 30.2 °F 75% 29.62 in 6.2 mi WSW 11.5 mph - N/A   Mostly Cloudy
10:00 PM 37.4 °F 29.8 °F 30.2 °F 75% 29.62 in 6.2 mi WSW 11.5 mph - N/A   Scattered Clouds
10:30 PM 37.4 °F 29.8 °F 32.0 °F 81% 29.59 in 6.2 mi WSW 11.5 mph - N/A   Overcast
11:00 PM 37.4 °F 29.8 °F 32.0 °F 81% 29.56 in 6.2 mi SW 11.5 mph - N/A   Overcast
11:30 PM 37.4 °F 28.5 °F 32.0 °F 81% 29.53 in 6.2 mi SW 15.0 mph 26.5 mph N/A   Overcast